Time,TemperatureF,DewpointF,PressureIn,WindDirection,WindDirectionDegrees,WindSpeedMPH,WindSpeedGustMPH,Humidity,HourlyPrecipIn,Conditions,Clouds,dailyrainin,SoftwareType,DateUTC
2013-08-04 00:02:00,54.0,53.0,30.00,SW,217,2.0,2.0,95,-99.99,,,-99.99,,2013-08-04 07:02:00,
2013-08-04 00:12:00,54.0,53.0,30.01,SW,217,2.0,3.0,95,-99.99,,,-99.99,,2013-08-04 07:12:00,
2013-08-04 00:22:00,54.0,53.0,30.01,SW,217,2.0,3.0,95,-99.99,,,-99.99,,2013-08-04 07:22:00,
2013-08-04 00:32:00,54.0,53.0,30.01,SW,217,2.0,3.0,95,-99.99,,,-99.99,,2013-08-04 07:32:00,
2013-08-04 00:42:00,54.0,53.0,30.01,SW,217,2.0,3.0,95,-99.99,,,-99.99,,2013-08-04 07:42:00,
2013-08-04 00:52:00,54.0,53.0,30.01,South,186,2.0,4.0,95,-99.99,,,-99.99,,2013-08-04 07:52:00,
2013-08-04 01:02:00,54.0,53.0,30.01,SW,223,2.0,3.0,96,-99.99,,,-99.99,,2013-08-04 08:02:00,
2013-08-04 01:11:00,54.0,53.0,30.01,SW,223,2.0,3.0,96,-99.99,,,-99.99,,2013-08-04 08:11:00,
2013-08-04 01:22:00,54.0,53.0,30.01,SW,219,1.0,6.0,96,-99.99,,,-99.99,,2013-08-04 08:22:00,
2013-08-04 01:32:00,54.0,53.0,30.01,SW,219,1.0,6.0,96,-99.99,,,-99.99,,2013-08-04 08:32:00,
2013-08-04 01:43:00,54.0,53.0,30.01,SW,219,1.0,6.0,96,-99.99,,,-99.99,,2013-08-04 08:43:00,
2013-08-04 01:53:00,54.0,53.0,30.01,SW,219,1.0,6.0,96,-99.99,,,-99.99,,2013-08-04 08:53:00,
2013-08-04 02:02:00,54.0,53.0,30.00,SSW,198,1.0,5.0,96,-99.99,,,-99.99,,2013-08-04 09:02:00,
2013-08-04 02:12:00,54.0,53.0,30.00,SSW,212,3.0,5.0,96,-99.99,,,-99.99,,2013-08-04 09:12:00,
2013-08-04 02:22:00,54.0,53.0,30.00,SSW,212,3.0,5.0,96,-99.99,,,-99.99,,2013-08-04 09:22:00,
2013-08-04 02:32:00,53.0,52.0,30.00,SW,222,2.0,3.0,96,-99.99,,,-99.99,,2013-08-04 09:32:00,
2013-08-04 02:52:00,53.0,52.0,30.00,SSW,210,1.0,4.0,96,-99.99,,,-99.99,,2013-08-04 09:52:00,
2013-08-04 03:02:00,53.0,52.0,30.00,SSW,210,1.0,4.0,96,-99.99,,,-99.99,,2013-08-04 10:02:00,
2013-08-04 03:11:00,53.0,52.0,30.44,SW,223,2.0,0.0,96,-99.99,,,-99.99,,2013-08-04 10:11:00,
2013-08-04 03:22:00,53.0,52.0,30.44,SW,223,2.0,0.0,96,-99.99,,,-99.99,,2013-08-04 10:22:00,
2013-08-04 03:32:00,53.0,52.0,30.42,SW,223,2.0,0.0,96,-99.99,,,-99.99,,2013-08-04 10:32:00,
2013-08-04 03:42:00,53.0,52.0,30.42,SW,223,2.0,0.0,96,-99.99,,,-99.99,,2013-08-04 10:42:00,
2013-08-04 03:53:00,53.0,52.0,30.42,SW,223,2.0,0.0,96,-99.99,,,-99.99,,2013-08-04 10:53:00,
2013-08-04 04:02:00,53.0,52.0,30.42,SW,223,2.0,0.0,96,-99.99,,,-99.99,,2013-08-04 11:02:00,
2013-08-04 04:22:00,53.0,52.0,30.40,SW,223,2.0,0.0,96,-99.99,,,-99.99,,2013-08-04 11:22:00,
2013-08-04 04:32:00,53.0,52.0,30.40,SW,223,2.0,0.0,96,-99.99,,,-99.99,,2013-08-04 11:32:00,
2013-08-04 04:42:00,53.0,52.0,30.40,SW,223,2.0,0.0,96,-99.99,,,-99.99,,2013-08-04 11:42:00,
2013-08-04 04:52:00,53.0,52.0,30.40,SW,223,2.0,0.0,96,-99.99,,,-99.99,,2013-08-04 11:52:00,
2013-08-04 05:02:00,53.0,52.0,30.40,SW,223,2.0,0.0,96,-99.99,,,-99.99,,2013-08-04 12:02:00,
2013-08-04 05:11:00,53.0,52.0,30.40,SW,223,2.0,0.0,96,-99.99,,,-99.99,,2013-08-04 12:11:00,
2013-08-04 05:22:00,53.0,52.0,30.40,SW,223,2.0,0.0,96,-99.99,,,-99.99,,2013-08-04 12:22:00,
2013-08-04 05:32:00,53.0,52.0,30.40,SW,223,2.0,0.0,96,-99.99,,,-99.99,,2013-08-04 12:32:00,
2013-08-04 05:43:00,53.0,52.0,30.40,SW,223,2.0,0.0,96,-99.99,,,-99.99,,2013-08-04 12:43:00,
2013-08-04 05:52:00,53.0,52.0,30.40,SW,223,2.0,0.0,96,-99.99,,,-99.99,,2013-08-04 12:52:00,
2013-08-04 06:02:00,53.0,52.0,30.40,SW,223,2.0,0.0,96,-99.99,,,-99.99,,2013-08-04 13:02:00,
2013-08-04 06:12:00,53.0,52.0,30.40,SW,223,2.0,0.0,96,-99.99,,,-99.99,,2013-08-04 13:12:00,
2013-08-04 06:32:00,53.0,52.0,30.40,SW,223,0.0,0.0,96,-99.99,,,-99.99,,2013-08-04 13:32:00,
2013-08-04 06:52:00,52.0,51.0,30.41,SSW,208,0.0,2.0,98,-99.99,,,-99.99,,2013-08-04 13:52:00,
2013-08-04 07:02:00,52.0,51.0,30.41,SSW,208,0.0,2.0,98,-99.99,,,-99.99,,2013-08-04 14:02:00,
2013-08-04 07:12:00,52.0,51.0,30.41,SSW,203,1.0,1.0,98,-99.99,,,-99.99,,2013-08-04 14:12:00,
2013-08-04 07:22:00,52.0,51.0,30.41,SSW,203,1.0,1.0,98,-99.99,,,-99.99,,2013-08-04 14:22:00,
2013-08-04 07:32:00,52.0,51.0,30.41,SSW,203,1.0,1.0,98,-99.99,,,-99.99,,2013-08-04 14:32:00,
2013-08-04 07:43:00,52.0,51.0,30.41,SSW,203,1.0,1.0,98,-99.99,,,-99.99,,2013-08-04 14:43:00,
2013-08-04 07:53:00,52.0,51.0,30.41,SSW,203,1.0,1.0,98,-99.99,,,-99.99,,2013-08-04 14:53:00,
2013-08-04 08:02:00,52.0,51.0,30.42,SSE,165,1.0,3.0,98,-99.99,,,-99.99,,2013-08-04 15:02:00,
2013-08-04 08:22:00,52.0,51.0,30.42,SSE,165,1.0,2.0,98,-99.99,,,-99.99,,2013-08-04 15:22:00,
2013-08-04 08:32:00,52.0,51.0,30.42,SSE,165,1.0,2.0,98,-99.99,,,-99.99,,2013-08-04 15:32:00,
2013-08-04 08:42:00,52.0,51.0,30.42,SSE,152,2.0,2.0,98,-99.99,,,-99.99,,2013-08-04 15:42:00,
2013-08-04 08:53:00,52.0,51.0,30.42,SSE,152,2.0,2.0,98,-99.99,,,-99.99,,2013-08-04 15:53:00,
2013-08-04 09:02:00,52.0,51.0,30.42,ESE,110,1.0,3.0,98,-99.99,,,-99.99,,2013-08-04 16:02:00,
2013-08-04 09:12:00,52.0,51.0,30.42,ESE,110,1.0,3.0,98,-99.99,,,-99.99,,2013-08-04 16:12:00,
2013-08-04 09:22:00,52.0,51.0,30.42,ESE,110,1.0,3.0,98,-99.99,,,-99.99,,2013-08-04 16:22:00,
2013-08-04 09:32:00,52.0,51.0,30.43,South,182,1.0,2.0,98,-99.99,,,-99.99,,2013-08-04 16:32:00,
2013-08-04 09:42:00,52.0,51.0,30.43,South,182,1.0,2.0,98,-99.99,,,-99.99,,2013-08-04 16:42:00,
2013-08-04 09:53:00,53.0,52.0,30.43,SW,220,1.0,3.0,98,-99.99,,,-99.99,,2013-08-04 16:53:00,
2013-08-04 10:02:00,53.0,52.0,30.43,SW,226,1.0,3.0,98,-99.99,,,-99.99,,2013-08-04 17:02:00,
2013-08-04 10:12:00,53.0,52.0,30.43,SW,226,1.0,3.0,98,-99.99,,,-99.99,,2013-08-04 17:12:00,
2013-08-04 10:22:00,53.0,52.0,30.43,SW,226,1.0,3.0,98,-99.99,,,-99.99,,2013-08-04 17:22:00,
2013-08-04 10:32:00,53.0,52.0,30.43,South,189,3.0,6.0,98,-99.99,,,-99.99,,2013-08-04 17:32:00,
2013-08-04 10:43:00,53.0,52.0,30.43,South,189,3.0,6.0,98,-99.99,,,-99.99,,2013-08-04 17:43:00,
2013-08-04 10:53:00,53.0,52.0,30.43,West,260,4.0,5.0,98,-99.99,,,-99.99,,2013-08-04 17:53:00,
2013-08-04 11:02:00,53.0,52.0,30.43,West,260,4.0,5.0,98,-99.99,,,-99.99,,2013-08-04 18:02:00,
2013-08-04 11:11:00,53.0,52.0,30.43,West,260,4.0,5.0,98,-99.99,,,-99.99,,2013-08-04 18:11:00,
2013-08-04 11:22:00,53.0,52.0,30.43,West,260,4.0,5.0,98,-99.99,,,-99.99,,2013-08-04 18:22:00,
2013-08-04 11:33:00,53.0,52.0,30.43,West,260,4.0,5.0,98,-99.99,,,-99.99,,2013-08-04 18:33:00,
2013-08-04 11:52:00,54.0,53.0,30.43,SW,229,6.0,6.0,98,-99.99,,,-99.99,,2013-08-04 18:52:00,
2013-08-04 12:02:00,54.0,53.0,30.43,SSW,213,1.0,6.0,98,-99.99,,,-99.99,,2013-08-04 19:02:00,
2013-08-04 12:12:00,54.0,53.0,30.43,SSW,213,1.0,6.0,98,-99.99,,,-99.99,,2013-08-04 19:12:00,
2013-08-04 12:22:00,54.0,53.0,30.43,SSW,213,1.0,6.0,98,-99.99,,,-99.99,,2013-08-04 19:22:00,
2013-08-04 12:32:00,54.0,53.0,30.43,SSW,213,1.0,6.0,98,-99.99,,,-99.99,,2013-08-04 19:32:00,
2013-08-04 12:43:00,54.0,53.0,30.43,SSW,213,1.0,6.0,98,-99.99,,,-99.99,,2013-08-04 19:43:00,
2013-08-04 13:12:00,58.0,55.0,30.42,SW,230,7.0,11.0,90,-99.99,,,-99.99,,2013-08-04 20:12:00,
2013-08-04 13:22:00,58.0,55.0,30.42,SW,230,7.0,11.0,90,-99.99,,,-99.99,,2013-08-04 20:22:00,
2013-08-04 13:32:00,59.0,55.0,30.42,South,182,4.0,12.0,87,-99.99,,,-99.99,,2013-08-04 20:32:00,
2013-08-04 13:42:00,59.0,55.0,30.42,South,182,4.0,12.0,87,-99.99,,,-99.99,,2013-08-04 20:42:00,
2013-08-04 13:53:00,59.0,55.0,30.42,South,182,4.0,12.0,87,-99.99,,,-99.99,,2013-08-04 20:53:00,
2013-08-04 14:02:00,59.0,55.0,30.42,South,182,4.0,12.0,87,-99.99,,,-99.99,,2013-08-04 21:02:00,
2013-08-04 14:12:00,61.0,54.0,30.41,SW,215,7.0,12.0,78,-99.99,,,-99.99,,2013-08-04 21:12:00,
2013-08-04 14:32:00,62.0,54.0,30.41,SW,232,10.0,11.0,76,-99.99,,,-99.99,,2013-08-04 21:32:00,
2013-08-04 14:43:00,62.0,54.0,30.41,SW,232,10.0,11.0,76,-99.99,,,-99.99,,2013-08-04 21:43:00,
2013-08-04 14:53:00,62.0,54.0,30.40,SW,234,7.0,13.0,76,-99.99,,,-99.99,,2013-08-04 21:53:00,
2013-08-04 15:01:00,62.0,54.0,30.40,SW,234,7.0,13.0,76,-99.99,,,-99.99,,2013-08-04 22:01:00,
2013-08-04 15:12:00,62.0,54.0,30.40,SW,234,7.0,13.0,76,-99.99,,,-99.99,,2013-08-04 22:12:00,
2013-08-04 15:22:00,62.0,54.0,30.40,SSW,212,11.0,14.0,75,-99.99,,,-99.99,,2013-08-04 22:22:00,
2013-08-04 15:32:00,62.0,55.0,30.40,SW,236,10.0,14.0,77,-99.99,,,-99.99,,2013-08-04 22:32:00,
2013-08-04 15:53:00,62.0,55.0,30.40,SW,222,10.0,14.0,77,-99.99,,,-99.99,,2013-08-04 22:53:00,
2013-08-04 16:02:00,61.0,54.0,30.40,SW,222,7.0,14.0,77,-99.99,,,-99.99,,2013-08-04 23:02:00,
2013-08-04 16:11:00,61.0,54.0,30.40,SW,222,7.0,14.0,77,-99.99,,,-99.99,,2013-08-04 23:11:00,
2013-08-04 16:22:00,60.0,53.0,30.40,WSW,239,6.0,14.0,79,-99.99,,,-99.99,,2013-08-04 23:22:00,
2013-08-04 16:32:00,61.0,54.0,30.40,SSW,208,12.0,16.0,78,-99.99,,,-99.99,,2013-08-04 23:32:00,
2013-08-04 16:43:00,60.0,54.0,30.40,SW,220,13.0,14.0,80,-99.99,,,-99.99,,2013-08-04 23:43:00,
2013-08-04 16:53:00,59.0,53.0,30.40,SSW,212,9.0,16.0,81,-99.99,,,-99.99,,2013-08-04 23:53:00,
2013-08-04 17:01:00,59.0,53.0,30.40,SSW,212,9.0,16.0,81,-99.99,,,-99.99,,2013-08-05 00:01:00,
2013-08-04 17:12:00,59.0,53.0,30.40,SSW,212,9.0,16.0,81,-99.99,,,-99.99,,2013-08-05 00:12:00,
2013-08-04 17:22:00,59.0,53.0,30.40,SSW,212,9.0,16.0,81,-99.99,,,-99.99,,2013-08-05 00:22:00,
2013-08-04 17:32:00,58.0,54.0,30.41,WSW,239,13.0,13.0,85,-99.99,,,-99.99,,2013-08-05 00:32:00,
2013-08-04 17:42:00,57.0,53.0,30.41,WSW,237,5.0,16.0,86,-99.99,,,-99.99,,2013-08-05 00:42:00,
2013-08-04 17:52:00,57.0,53.0,30.41,WSW,237,5.0,16.0,86,-99.99,,,-99.99,,2013-08-05 00:52:00,
2013-08-04 18:02:00,57.0,53.0,30.41,WSW,237,5.0,16.0,86,-99.99,,,-99.99,,2013-08-05 01:02:00,
2013-08-04 18:11:00,57.0,53.0,30.41,WSW,237,5.0,16.0,86,-99.99,,,-99.99,,2013-08-05 01:11:00,
2013-08-04 18:21:00,57.0,53.0,30.41,WSW,237,5.0,16.0,86,-99.99,,,-99.99,,2013-08-05 01:21:00,
2013-08-04 18:33:00,57.0,53.0,30.45,SW,223,6.0,11.0,86,-99.99,,,-99.99,,2013-08-05 01:33:00,
2013-08-04 18:43:00,57.0,53.0,30.45,SW,223,6.0,11.0,86,-99.99,,,-99.99,,2013-08-05 01:43:00,
2013-08-04 18:52:00,57.0,53.0,30.45,SW,223,6.0,11.0,86,-99.99,,,-99.99,,2013-08-05 01:52:00,
2013-08-04 19:22:00,56.0,53.0,30.45,SW,217,8.0,13.0,89,-99.99,,,-99.99,,2013-08-05 02:22:00,
2013-08-04 19:33:00,56.0,53.0,30.45,SW,217,8.0,13.0,89,-99.99,,,-99.99,,2013-08-05 02:33:00,
2013-08-04 19:42:00,55.0,52.0,30.45,WSW,240,3.0,7.0,91,-99.99,,,-99.99,,2013-08-05 02:42:00,
2013-08-04 19:53:00,55.0,52.0,30.45,WSW,240,3.0,7.0,91,-99.99,,,-99.99,,2013-08-05 02:53:00,
2013-08-04 20:02:00,55.0,52.0,30.45,SW,236,5.0,10.0,91,-99.99,,,-99.99,,2013-08-05 03:02:00,
2013-08-04 20:12:00,55.0,52.0,30.45,SSW,210,5.0,8.0,91,-99.99,,,-99.99,,2013-08-05 03:12:00,
2013-08-04 20:21:00,55.0,52.0,30.45,SSW,210,5.0,8.0,91,-99.99,,,-99.99,,2013-08-05 03:21:00,
2013-08-04 20:42:00,54.0,52.0,30.46,SSW,203,3.0,8.0,92,-99.99,,,-99.99,,2013-08-05 03:42:00,
2013-08-04 20:52:00,54.0,52.0,30.46,SSW,203,3.0,8.0,92,-99.99,,,-99.99,,2013-08-05 03:52:00,
2013-08-04 21:02:00,54.0,52.0,30.46,SSW,203,3.0,8.0,92,-99.99,,,-99.99,,2013-08-05 04:02:00,
2013-08-04 21:12:00,54.0,52.0,30.47,SSW,210,3.0,7.0,93,-99.99,,,-99.99,,2013-08-05 04:12:00,
2013-08-04 21:22:00,54.0,52.0,30.47,SSW,210,3.0,7.0,93,-99.99,,,-99.99,,2013-08-05 04:22:00,
2013-08-04 21:32:00,54.0,52.0,30.47,SSW,210,3.0,7.0,93,-99.99,,,-99.99,,2013-08-05 04:32:00,
2013-08-04 21:43:00,54.0,52.0,30.50,South,181,1.0,5.0,94,-99.99,,,-99.99,,2013-08-05 04:43:00,
2013-08-04 21:52:00,54.0,52.0,30.65,SSW,206,2.0,6.0,94,-99.99,,,-99.99,,2013-08-05 04:52:00,
2013-08-04 22:02:00,54.0,52.0,30.65,SW,232,2.0,3.0,94,-99.99,,,-99.99,,2013-08-05 05:02:00,
2013-08-04 22:11:00,54.0,52.0,30.65,SW,216,1.0,3.0,94,-99.99,,,-99.99,,2013-08-05 05:11:00,
2013-08-04 22:21:00,54.0,52.0,30.65,SW,216,1.0,3.0,94,-99.99,,,-99.99,,2013-08-05 05:21:00,
2013-08-04 22:32:00,54.0,52.0,30.65,SW,216,1.0,3.0,94,-99.99,,,-99.99,,2013-08-05 05:32:00,
2013-08-04 22:42:00,54.0,52.0,30.65,South,182,2.0,5.0,94,-99.99,,,-99.99,,2013-08-05 05:42:00,
2013-08-04 22:52:00,54.0,52.0,30.65,South,182,2.0,5.0,94,-99.99,,,-99.99,,2013-08-05 05:52:00,
2013-08-04 23:02:00,54.0,52.0,30.65,South,182,2.0,5.0,94,-99.99,,,-99.99,,2013-08-05 06:02:00,
2013-08-04 23:12:00,54.0,53.0,30.65,SE,144,0.0,2.0,95,-99.99,,,-99.99,,2013-08-05 06:12:00,
2013-08-04 23:22:00,54.0,53.0,30.65,SE,144,0.0,2.0,95,-99.99,,,-99.99,,2013-08-05 06:22:00,
2013-08-04 23:32:00,54.0,53.0,30.65,SE,144,0.0,2.0,95,-99.99,,,-99.99,,2013-08-05 06:32:00,
2013-08-04 23:52:00,54.0,53.0,30.65,SE,144,1.0,2.0,95,-99.99,,,-99.99,,2013-08-05 06:52:00,